GW5022 Weather Reports


time (UTC)temp
F
wind
direction
speed
knots
gust
knots
rain 1hr
in
rain 24hr
in
rain mn
in
humidity
%
barometer
mb
20260507055707 44 247 7.8 8.7 0.00 0.42 0.00 91 1007.3
20260507054202 44 236 6.1 8.7 0.00 0.42 0.00 91 1007.2
20260507052711 44 241 7.8 9.6 0.00 0.42 0.00 91 1007.3
20260507051228 44 255 8.7 9.6 0.00 0.42 0.00 91 1007.5
20260507045737 44 238 8.7 9.6 0.00 0.42 0.00 91 1007.9
20260507045212 44 238 8.7 9.6 0.00 0.42 0.00 91 1007.9
20260507044212 44 241 8.7 8.7 0.00 0.42 0.00 91 1007.9
20260507042704 44 234 6.1 7.8 0.00 0.42 0.00 91 1008.1
20260507041202 44 240 7.0 7.8 0.00 0.42 0.00 90 1008.0
20260507035704 44 240 5.2 6.1 0.00 0.42 0.42 90 1008.1
20260507034212 44 239 6.1 7.0 0.00 0.42 0.42 89 1008.3
20260507033714 44 239 6.1 7.0 0.00 0.42 0.42 89 1008.3
20260507032702 45 224 5.2 7.0 0.00 0.42 0.42 89 1008.4
20260507031231 45 237 5.2 5.2 0.00 0.42 0.42 89 1008.6
20260507025710 45 230 5.2 5.2 0.00 0.42 0.42 88 1008.7
20260507025223 45 230 5.2 5.2 0.00 0.42 0.42 88 1008.7
20260507022702 45 246 4.3 5.2 0.00 0.43 0.42 88 1008.7
20260507021231 45 231 3.5 6.1 0.00 0.43 0.42 89 1008.7
20260507015711 46 242 4.3 4.3 0.00 0.43 0.42 88 1008.8
20260507012703 46 246 4.3 6.1 0.00 0.43 0.42 86 1008.8
20260507011203 46 245 4.3 5.2 0.00 0.43 0.42 86 1009.0
20260507005738 46 241 5.2 5.2 0.00 0.43 0.42 85 1008.6
20260507005215 46 241 5.2 5.2 0.00 0.43 0.42 85 1008.6
20260507004202 46 241 3.5 4.3 0.00 0.43 0.42 84 1008.6
20260507002707 46 256 4.3 4.3 0.00 0.43 0.42 83 1008.4
20260507001202 46 263 2.6 5.2 0.00 0.43 0.42 82 1008.3
20260507000712 46 263 2.6 5.2 0.00 0.43 0.42 82 1008.3
20260506235712 46 254 4.3 4.3 0.00 0.43 0.42 80 1008.4
20260506234203 46 250 4.3 4.3 0.00 0.43 0.42 79 1008.2
20260506232711 47 256 4.3 4.3 0.00 0.43 0.42 78 1008.1
20260506232214 47 256 4.3 4.3 0.00 0.43 0.42 78 1008.1
20260506230710 47 249 6.1 7.0 0.00 0.43 0.42 78 1008.0
20260506230423 47 249 6.1 7.0 0.00 0.43 0.42 78 1008.0
20260506224702 47 299 5.2 5.2 0.00 0.43 0.42 78 1008.0
20260506223221 47 246 5.2 7.0 0.00 0.43 0.42 79 1008.0
20260506221702 48 242 7.0 7.0 0.00 0.43 0.42 79 1008.0
20260506220202 48 255 4.3 4.3 0.00 0.43 0.42 79 1008.1
20260506214702 47 282 3.5 4.3 0.00 0.43 0.42 78 1008.1
20260506213203 47 271 4.3 5.2 0.00 0.43 0.42 81 1007.9
20260506211728 47 240 5.2 5.2 0.00 0.43 0.42 82 1007.9
20260506210202 47 282 4.3 5.2 0.00 0.43 0.42 82 1008.5
20260506203202 48 291 4.3 4.3 0.00 0.43 0.42 79 1008.2
20260506201702 47 283 4.3 4.3 0.00 0.43 0.42 78 1008.2
20260506200202 47 273 4.3 4.3 0.00 0.43 0.42 79 1008.3
20260506194702 46 301 4.3 5.2 0.00 0.43 0.42 82 1008.3
20260506193202 47 310 5.2 6.1 0.00 0.43 0.42 80 1008.4
20260506191703 47 0 4.3 4.3 0.00 0.43 0.42 77 1008.4
20260506190202 47 95 2.6 4.3 0.00 0.43 0.42 80 1008.2
20260506184701 46 93 5.2 5.2 0.00 0.43 0.42 80 1008.2
20260506183202 46 105 3.5 5.2 0.00 0.43 0.42 86 1008.3
20260506181703 46 42 4.3 4.3 0.00 0.43 0.42 85 1008.3
20260506180202 45 241 1.7 4.3 0.00 0.43 0.42 88 1008.8
20260506174702 45 308 2.6 3.5 0.02 0.43 0.42 87 1008.8
20260506173202 45 292 2.6 2.6 0.02 0.43 0.42 89 1009.4
20260506171702 45 300 3.5 3.5 0.02 0.43 0.42 89 1009.4
20260506164702 44 353 2.6 2.6 0.03 0.41 0.40 86 1009.3
20260506163202 43 353 1.7 4.3 0.03 0.41 0.40 89 1009.5
20260506160202 43 326 4.3 4.3 0.06 0.40 0.39 92 1009.8
20260506154702 43 304 3.5 5.2 0.06 0.38 0.37 92 1009.8
20260506153201 43 319 4.3 4.3 0.07 0.37 0.36 93 1009.9
20260506151702 44 294 4.3 4.3 0.06 0.35 0.34 93 1009.9
20260506150203 43 249 4.3 4.3 0.08 0.34 0.33 93 1009.8
20260506144702 44 263 2.6 2.6 0.06 0.31 0.31 93 1009.8
20260506143202 44 256 4.3 5.2 0.06 0.30 0.29 93 1009.9
20260506141702 44 258 4.3 4.3 0.06 0.29 0.28 92 1009.9
20260506140202 43 238 3.5 4.3 0.04 0.26 0.25 91 1009.8
20260506134728 44 235 5.2 5.2 0.06 0.26 0.25 91 1009.8
20260506134250 44 235 5.2 5.2 0.06 0.26 0.25 91 1009.8
20260506133201 43 236 5.2 6.1 0.06 0.24 0.23 91 1010.0
20260506131701 43 240 5.2 5.2 0.07 0.23 0.22 91 1010.0
20260506130201 44 238 7.0 7.0 0.06 0.21 0.20 92 1009.9
20260506124728 44 240 7.0 7.0 0.07 0.19 0.18 92 1009.9
20260506123202 44 236 5.2 7.0 0.10 0.20 0.17 91 1009.9
20260506121701 44 252 4.3 5.2 0.09 0.18 0.15 92 1009.9
20260506120201 44 249 5.2 5.2 0.10 0.18 0.14 92 1010.1
20260506114702 44 245 5.2 7.0 0.07 0.15 0.11 92 1010.1
20260506113201 45 245 5.2 7.0 0.06 0.11 0.07 91 1010.2
20260506111728 45 229 7.0 7.0 0.06 0.10 0.06 91 1010.2
20260506104701 45 239 5.2 5.2 0.03 0.07 0.03 89 1009.7
20260506103227 46 233 7.0 7.8 0.01 0.05 0.01 88 1009.6
20260506101701 46 244 7.8 8.7 0.00 0.04 0.00 86 1009.6
20260506100202 46 240 7.0 9.6 0.00 0.04 0.00 85 1009.5
20260506094727 47 241 6.1 7.8 0.00 0.04 0.00 84 1009.5
20260506093201 47 239 6.1 7.0 0.00 0.04 0.00 85 1008.9
20260506091701 47 247 5.2 7.0 0.00 0.04 0.00 84 1008.9
20260506090202 47 239 6.1 7.0 0.00 0.04 0.00 83 1008.8
20260506084701 47 232 6.1 7.0 0.00 0.04 0.00 83 1008.8
20260506083203 47 246 7.0 8.7 0.00 0.04 0.00 83 1009.4
20260506080227 48 238 7.8 8.7 0.00 0.04 0.00 81 1009.2
20260506071701 49 237 9.6 10.4 0.00 0.04 0.00 80 1008.8
20260506070201 49 230 7.8 11.3 0.00 0.04 0.00 81 1008.8
20260506061702 49 237 8.7 10.4 0.00 0.04 0.00 83 1008.8